Regional Weather Roundup
Issued by NWS Green Bay, WI

Home | Current Version | Previous Version | Graphics & Text | Print | Product List | Glossary Off
Versions: 1 2 3 4 5 6 7 8 9 10 11 12 13 14 15 16 17 18 19 20 21 22 23 24 25 26 27 28 29 30 31 32 33 34 35 36 37 38 39 40 41 42 43 44 45 46 47 48 49 50

000
ASUS43 KGRB 110411
RWRGRB

NORTH-CENTRAL AND NORTHEAST WISCONSIN REGIONAL WEATHER ROUNDUP
NATIONAL WEATHER SERVICE GREEN BAY WI
1000 PM CST SUN DEC 10 2017

WIZ005-009-010>012-018-019-110500-
NORTH CENTRAL WISCONSIN

CITY           SKY/WX    TMP DP  RH WIND       PRES   REMARKS
IRONWOOD       FLURRIES  14  11  87 SW3       29.97F
MANITOWISH WTR CLOUDY     6   6 100 CALM      29.94S
ARBOR VITAE    CLOUDY    14  10  86 CALM      29.94F
EAGLE RIVER    CLOUDY    15  10  81 CALM      29.93F
LAND O LAKES   CLOUDY    15  12  88 CALM      29.95F
RHINELANDER    CLOUDY    12   7  80 W6        29.95F WCI   3
PHILLIPS       CLOUDY     7   6  98 CALM      29.97S
ANTIGO         FLURRIES  17  12  81 CALM      29.97F
TOMAHAWK       CLOUDY     9   6  88 CALM      29.97F
MERRILL        CLOUDY    13   9  83 CALM      29.99F
$$

WIZ013-073-110500-
NORTHEAST WISCONSIN

CITY           SKY/WX    TMP DP  RH WIND       PRES   REMARKS
IRON MOUNTAIN  CLOUDY    14   8  77 CALM      29.98F
MARINETTE      MOCLDY    16   8  71 NE6       30.05F WCI   7
OCONTO         PTCLDY    17   9  71 NE5       30.05F WCI  10
$$

WIZ017-030-035>037-045-110500-
CENTRAL WISCONSIN

CITY           SKY/WX    TMP DP  RH WIND       PRES   REMARKS
MEDFORD        CLOUDY    14  11  87 CALM      29.98S
WAUSAU         CLOUDY    20  11  68 CALM      29.98F
MOSINEE        CLOUDY    19  14  79 SW3       30.00F
MARSHFIELD     CLOUDY    16  12  84 SW3       29.99F
WISC RAPIDS    CLOUDY    21  13  71 CALM      30.04F
STEVENS POINT  CLOUDY    20  13  73 CALM      30.01F
WAUPACA        CLOUDY    26  14  62 W3        30.04F
SHAWANO        CLOUDY    24  16  70 CALM      30.03F
CLINTONVILLE   CLOUDY    25  16  68 CALM      30.03F
WAUTOMA        CLOUDY    23  15  71 CALM      30.04F
$$

WIZ038-039-048-051-110500-
FOX VALLEY

CITY           SKY/WX    TMP DP  RH WIND       PRES   REMARKS
NWS GREEN BAY  CLOUDY    23  15  71 NE8       30.04F
APPLETON       CLOUDY    25  12  58 CALM      30.02F
OSHKOSH        CLOUDY    25  17  72 W6        30.04S
FOND DU LAC    CLOUDY    26  16  65 W7        30.05S
$$

WIZ022-050-052-110500-
EAST CENTRAL WISCONSIN

CITY           SKY/WX    TMP DP  RH WIND       PRES   REMARKS
EPHRAIM        MOCLDY    17   7  64 NW6       30.03F WCI   9
WASHINGTON ISL MOCLDY    17   6  61 NW3       30.04S
STURGEON BAY   CLOUDY    21  11  65 N9        30.05S
MANITOWOC      CLOUDY    22  14  71 N3        30.05F
SHEBOYGAN      CLOUDY    25  19  78 NE3       30.04F
$$

LMZ563-521-522-541>543-110500-
LAKESHORE

STATION/POSITION TIME  TEMP    WIND        PRES    VSBY  WAVE
                       AIR SEA DIR/SP/G                  HT/PER
                 (UTC) (F)     (DEG/KT/KT) (MB)    (MI)  (FT/S)
SHEBOYGAN LKSHOR 0400   26     320/  7/  9 1018.4F
KEWAUNEE LKSHORE 0348   20     330/  2/  4 1016.6F
NORTHPORT PIER   0340   20     330/ 12/ 16 1017.6S
MENOMINEE LKSHOR 0348   20     340/ 10/ 13 1017.2F
$$




USA.gov is the U.S. government's official web portal to all federal, state and local government web resources and services.